Location: Cavour
(44.7833°N, 7.3667°E)
Time: 18:21:01
(UTC+00:00)

Daily predictions for brighter satellites

Satellite Brightness Start Highest point End
(mag) Time Altitude Azimuth Time Altitude Azimuth Time Altitude Azimuth
KORONAS-FOTON 4.2 18:02:33 10° N 18:06:01 37° ENE 18:09:26 10° SE
SL-16 R/B 3.9 18:06:24 10° ESE 18:08:13 12° E 18:10:02 10° ENE
NOSS 2-1 (C) 3.8 18:05:30 10° NW 18:09:24 81° SW 18:14:50 10° SSE
Cosmos 1733 4.3 18:07:17 10° SE 18:09:51 20° E 18:12:24 10° NE
Cosmos 1315 Rocket 4.5 18:08:31 10° NNE 18:11:07 16° ENE 18:13:41 10° ESE
Okean 3 Rocket 4.2 18:10:23 10° SSE 18:14:24 34° E 18:18:25 10° NNE
Cosmos 1536 3.5 18:12:02 10° SSE 18:15:23 30° E 18:18:45 10° NNE
USA 186 3.5 18:15:04 10° ESE 18:17:09 16° ENE 18:19:16 10° NNE
COSMOS 2428 3.1 18:11:37 10° SSW 18:17:19 73° WNW 18:23:04 10° NNE
Cosmos 1464 Rocket 4.5 18:14:05 10° SSE 18:19:54 40° E 18:25:46 10° NNE
USA 306 4.3 18:17:26 10° WNW 18:19:55 22° NNW 18:22:43 10° NE
USA 290 2.2 18:17:54 10° NNW 18:21:12 86° ENE 18:24:29 10° SSE
Meteor PRIRODA 3.9 18:18:16 10° SE 18:21:19 37° ENE 18:24:24 10° N
Okean O Rocket 3.4 18:20:40 10° E 18:23:10 16° ENE 18:25:47 10° NNE
Cosmos 1766 Rocket 3.5 18:19:02 10° S 18:23:23 83° E 18:27:49 10° N
Cosmos 2278 Rocket 2.2 18:17:59 10° NNW 18:23:41 73° ENE 18:29:20 10° SSE
BREEZE-M DEB (TANK) 4.2 18:21:57 10° WNW 18:24:25 38° N 18:29:18 10° ENE
YAOGAN 1 3.0 18:20:20 10° S 18:24:35 67° W 18:28:52 10° NNW
ACS3 Solar Sail 3.0 18:20:27 10° ESE 18:25:29 25° ENE 18:30:32 10° N
SL-08 R/B 3.5 18:20:56 10° NNE 18:25:48 57° E 18:30:37 10° S
CZ-4B DEB 4.4 18:23:18 10° SE 18:28:39 55° ENE 18:34:00 10° N
Cosmos 1570 Rocket 4.2 18:24:32 10° S 18:29:35 48° ESE 18:34:37 10° NNE
CZ-4B R/B 3.9 18:26:36 10° SE 18:31:25 34° ENE 18:36:11 10° N
Cosmos 1408 Rocket 4.2 18:30:45 10° SSE 18:34:38 32° E 18:38:35 10° NNE
USA 276 2.4 18:37:21 10° WNW 18:40:09 49° SSW 18:41:57 18° SE
Cosmos 1125 Rocket 3.5 18:35:49 10° NNW 18:40:59 62° ENE 18:46:08 10° SSE
Resurs 01 Rocket 2.1 18:39:18 11° SE 18:43:16 40° ENE 18:47:24 10° N
ISS -2.8 18:40:33 10° W 18:43:48 45° NNW 18:47:04 10° NE
Cosmos 2034 Rocket 4.4 18:38:33 10° SSE 18:44:15 41° E 18:49:57 10° NNE
CSL-04 Rocket 4.2 18:39:43 12° SE 18:44:18 38° ENE 18:49:10 10° N
CZ-4 R/B 1.3 18:41:57 10° SSE 18:45:43 60° ENE 18:49:34 10° N
Cosmos 1328 Rocket 4.4 18:43:45 10° NNW 18:47:57 53° W 18:52:08 10° S
Cosmos 2237 Rocket 2.1 18:43:08 10° SSW 18:48:46 84° ESE 18:54:25 10° NNE
BREEZE-M DEB (TANK) 2.9 18:46:53 10° W 18:48:51 36° N 18:50:36 15° NE
BlueWalker 3 4.4 18:46:58 10° W 18:49:27 17° SW 18:51:55 10° S
ATLAS CENTAUR R/B 1.3 18:47:34 10° SW 18:51:05 70° NW 18:54:49 10° NNE
Okean-O 4.2 18:50:35 16° ENE 18:51:26 17° ENE 18:54:19 10° NNE
CARTOSAT-1 3.8 18:48:10 13° SE 18:51:41 48° ENE 18:55:47 10° N
Meteor 1-13 Rocket 4.3 18:46:43 10° N 18:52:32 63° ENE 18:58:10 10° SSE
NOSS 3-3 (C) 3.7 18:47:22 10° SSW 18:52:33 59° ESE 18:58:35 10° NE
PAYLOAD B 4.2 18:47:20 10° SSE 18:52:53 68° ENE 18:58:27 10° N
CZ-4B R/B 3.6 18:50:17 10° S 18:55:00 72° WSW 18:59:52 10° NNW
Meteor 1-4 Rocket 4.0 18:53:55 10° NW 18:56:13 27° W 18:58:31 10° SSW
SJ-6B 3.0 18:53:54 10° S 18:57:28 64° W 19:01:03 10° NNW
Terra 3.9 18:57:48 11° ENE 18:58:03 11° ENE 18:59:15 10° NE
CZ-4B R/B 2.8 18:57:26 10° SSE 19:01:20 87° ENE 19:05:28 10° NNW
Sich 1 3.3 18:57:19 10° SSE 19:01:21 43° E 19:05:26 10° NNE
Cosmos 1805 Rocket 3.9 18:58:46 10° SSE 19:02:48 41° E 19:06:54 10° NNE
Cosmos 1707 3.4 19:00:07 10° NNW 19:03:34 49° W 19:06:59 10° S
Cosmos 1805 3.4 19:02:39 24° SSE 19:04:25 41° E 19:07:53 10° NNE
NOSS 3-3 (A) 3.6 18:59:39 10° SSW 19:04:56 78° SE 19:11:09 10° NE
In-Cosmos 22 4.1 19:01:31 10° N 19:07:13 87° ENE 19:12:45 10° S
Cosmos 1943 Rocket 2.4 19:08:10 10° NNW 19:13:40 69° WSW 19:18:41 12° SSE
ARGOS Delta rocket 4.4 19:12:51 10° S 19:17:47 60° W 19:22:28 10° NNW
Cosmos 2369 Rocket 3.2 19:13:09 10° N 19:18:06 29° NE 19:19:41 26° E
Cosmos 158 Rocket 4.0 19:13:18 10° SSW 19:18:09 73° WNW 19:23:02 10° NNE
Cosmos 1980 4.4 19:13:22 10° SW 19:18:55 55° WNW 19:24:31 10° NNE
CSL-04 Debris 4.1 19:16:05 16° SSE 19:20:34 82° ENE 19:26:04 10° NNW
Cosmos 1428 Rocket 4.3 19:16:51 10° N 19:22:58 73° E 19:27:36 18° SSE
Cosmos 2208 Rocket 4.1 19:19:37 10° SSW 19:24:52 78° WNW 19:30:15 10° NNE
Meteor 1-11 Rocket 4.0 19:23:26 10° SSW 19:29:00 69° WNW 19:34:33 10° N
NOSS 3-4 (A) 4.2 19:24:26 10° NNW 19:30:59 49° NE 19:34:11 32° E
NOSS 3-4 (C) 4.2 19:24:32 10° NNW 19:31:04 48° NE 19:34:15 32° E
Helios 1A 4.5 19:27:52 10° N 19:31:36 36° WNW 19:35:19 10° SW
Cosmos 1975 3.3 19:33:39 42° NE 19:33:39 42° NE 19:36:34 10° NNE
Cosmos 724 4.2 19:27:08 10° SSW 19:32:49 62° ESE 19:38:32 10° NE
USA 59 Rocket 2.8 19:33:12 10° WNW 19:36:14 17° WSW 19:39:53 10° SSW
Cosmos 1656 Rocket 3.9 19:31:09 10° NNW 19:36:40 51° ENE 19:37:55 43° E
MOS 1-B 4.3 19:33:23 24° SSE 19:37:03 90° E 19:42:53 10° NNW
GEOS 3 Rocket 3.6 19:40:21 39° SSE 19:42:21 77° SW 19:47:34 10° NW
Cosmos 2195 Rocket 4.4 19:37:03 10° N 19:43:12 89° WSW 19:47:01 25° S
Meteor 1-21 4.2 19:40:51 10° N 19:46:38 72° ENE 19:48:22 46° SSE
Cosmos 1315 Rocket 4.0 19:43:38 10° NNW 19:47:23 41° W 19:49:23 23° SSW
USA 186 3.8 19:47:24 21° SW 19:48:39 27° W 19:51:28 10° NW
Cosmos 2026 Rocket 3.8 19:43:21 10° N 19:49:36 86° E 19:52:25 35° S
ERS-1 Rocket 3.7 19:50:45 37° NE 19:50:45 37° NE 19:54:57 10° N
SL-16 R/B 2.0 19:45:41 10° SSW 19:51:21 81° ESE 19:57:03 10° NNE
MetOp-B 4.1 19:53:42 58° E 19:54:15 61° ENE 19:59:32 10° N
Cosmos 1092 Rocket 3.9 19:48:03 10° N 19:54:25 90° E 19:57:23 34° S
Cosmos 783 Rocket 4.3 19:57:39 63° SSE 19:58:22 72° ESE 20:03:37 10° NNE
Okean O Rocket 2.0 19:58:01 49° SSW 19:58:56 62° W 20:03:20 10° NNW
SL-14 R/B 3.9 19:59:01 10° NNW 20:02:42 50° W 20:02:42 50° W
SPOT 5 2.7 20:04:13 70° NNE 20:04:13 70° NNE 20:08:13 10° N
BREEZE-M DEB (TANK) 4.2 20:04:07 10° WSW 20:16:31 - ENE 20:05:59 44° WSW
CRYOSAT 2 4.3 20:03:44 10° N 20:08:39 86° W 20:08:49 83° SW
Ariane Rocket 4.2 20:10:04 29° NE 20:10:04 29° NE 20:13:21 10° N
Cosmos 1634 Rocket 3.9 20:05:08 26° S 20:08:55 87° W 20:15:18 10° N
ACS3 Solar Sail 2.2 20:05:15 26° S 20:09:00 64° W 20:15:23 10° NNW
Cosmos 2263 4.5 20:07:34 10° NNW 20:12:57 53° NE 20:12:57 53° NE
Resurs 01 Rocket 3.9 20:16:47 11° SW 20:19:49 21° W 20:23:12 10° NW
CZ-4 R/B 4.4 20:19:30 10° WSW 20:20:38 11° W 20:21:46 10° WNW
ISS -1.1 20:18:19 10° WNW 20:20:01 20° NNW 20:20:01 20° NNW
Cosmos 2228 Rocket 3.7 20:18:07 10° NNW 20:21:51 57° NW 20:21:51 57° NW
IRS-1A Rocket 4.2 20:26:52 86° NE 20:26:52 86° NE 20:32:30 10° NNW
Okean-O 3.4 20:28:02 48° WNW 20:28:02 48° WNW 20:31:42 10° NNW
MOS 1 Rocket 3.6 20:28:47 73° WNW 20:28:47 73° WNW 20:33:45 10° NNW
ATLAS CENTAUR R/B 4.4 20:27:59 10° NW 20:29:13 11° NNW 20:30:28 10° NNW
Cosmos 2142 Rocket 4.4 20:34:59 75° NNE 20:34:59 75° NNE 20:40:38 10° N
Terra 2.8 20:36:29 41° N 20:36:29 41° N 20:39:33 10° N
USA 267 4.3 20:42:06 31° NE 20:43:55 36° NNE 20:49:45 10° NW
Cosmos 2279 Rocket 4.1 20:45:36 64° WSW 20:46:13 68° W 20:52:26 10° N
Cosmos 2297 4.3 20:44:20 10° NW 20:49:22 50° W 20:49:22 50° W
Cosmos 2369 Rocket 3.0 20:56:52 10° NW 21:01:28 46° W 21:01:28 46° W
NOSS 3-4 (C) 4.5 21:15:23 10° NW 21:21:41 47° WSW 21:21:41 47° WSW
ATLAS 2AS CENTAUR R/B 4.0 22:07:15 10° NNW 22:11:54 32° N 22:11:54 32° N
Cosmos 2344 4.3 22:49:56 10° NW 22:56:08 58° NW 22:56:08 58° NW
